Weather History for PAGS - December, 2012

Change the Weather History Date:

Tuesday, December 18, 2012

  Actual Average Record
Temperature  
Mean Temperature 14 °F -  
Max Temperature 19 °F 31 °F 49 °F (1954)
Min Temperature 8 °F 19 °F -5 °F (1990)
Degree Days  
Heating Degree Days 52    
Moisture  
Dew Point 8 °F    
Average Humidity 74    
Maximum Humidity 86    
Minimum Humidity 67    
Precipitation  
Precipitation 0.00 in - - ()
Sea Level Pressure  
Sea Level Pressure 29.55 in    
Wind  
Wind Speed 3 mph (NNW)    
Max Wind Speed 7 mph    
Max Gust Speed -    
Visibility 10 miles    
Events      
Averages and records for this station are not official NWS values.
T = Trace of Precipitation, MM = Missing Value Source: NWS Daily Summary

Daily Weather History Graph

Daily Weather History Graph

Search for Another Location

Airport or City:

Trip Planner

Search our weather history database for the weather conditions in past years. The results will help you decide how hot, cold, wet, or windy it might be!

Date:

Astronomy

Dec. 18, 2012 Rise Set
Actual Time 8:49 AM AKST 3:10 PM AKST
Civil Twilight 7:56 AM AKST 4:03 PM AKST
Nautical Twilight 7:02 AM AKST 4:56 PM AKST
Astronomical Twilight 6:13 AM AKST 5:45 PM AKST
Moon 11:13 AM AKST (12/18) 11:11 PM AKST (12/18)
Length of Visible Light 8h 07m
Length of Day
6h 21m
Waxing Crescent, 36% of the Moon is Illuminated
Dec 18
Waxing Crescent
Dec 19
First Quarter
Dec 28
Full
Jan 4
Last Quarter
Jan 11
New

Hourly Weather History & Observations

Time (AKST) Temp. Windchill Dew Point Humidity Pressure Visibility Wind Dir Wind Speed Gust Speed Precip Events Conditions
12:16 AM 8.6 °F - 5.0 °F 85% 29.70 in 10.0 mi Calm Calm - N/A   Mostly Cloudy
12:36 AM 8.6 °F 2.0 °F 3.2 °F 79% 29.70 in 10.0 mi North 3.5 mph - N/A   Mostly Cloudy
12:56 AM 10.4 °F 4.0 °F 3.2 °F 73% 29.70 in 10.0 mi North 3.5 mph - N/A   Overcast
1:16 AM 10.4 °F 2.2 °F 3.2 °F 73% 29.70 in 10.0 mi North 4.6 mph - N/A   Overcast
1:36 AM 12.2 °F - 6.8 °F 79% 29.70 in 10.0 mi Calm Calm - N/A   Overcast
1:56 AM 10.4 °F 4.0 °F 3.2 °F 73% 29.70 in 10.0 mi North 3.5 mph - N/A   Overcast
2:16 AM 10.4 °F - 3.2 °F 73% 29.70 in 10.0 mi Calm Calm - N/A   Overcast
2:36 AM 10.4 °F - 3.2 °F 73% 29.70 in 10.0 mi Calm Calm - N/A   Overcast
3:16 AM 8.6 °F 0.1 °F 1.4 °F 73% 29.70 in 10.0 mi NNW 4.6 mph - N/A   Partly Cloudy
3:36 AM 8.6 °F 2.0 °F 3.2 °F 79% 29.70 in 10.0 mi North 3.5 mph - N/A   Partly Cloudy
3:56 AM 8.6 °F 2.0 °F 3.2 °F 79% 29.69 in 10.0 mi North 3.5 mph - N/A   Mostly Cloudy
4:16 AM 10.4 °F 4.0 °F 3.2 °F 73% 29.69 in 10.0 mi North 3.5 mph - N/A   Mostly Cloudy
4:36 AM 10.4 °F 4.0 °F 5.0 °F 79% 29.69 in 10.0 mi North 3.5 mph - N/A   Overcast
4:56 AM 12.2 °F 6.1 °F 5.0 °F 73% 29.68 in 10.0 mi North 3.5 mph - N/A   Scattered Clouds
5:16 AM 10.4 °F - 3.2 °F 73% 29.68 in 10.0 mi Calm Calm - N/A   Clear
5:36 AM 10.4 °F - 1.4 °F 67% 29.67 in 10.0 mi Calm Calm - N/A   Mostly Cloudy
5:56 AM 10.4 °F 4.0 °F 3.2 °F 73% 29.67 in 10.0 mi North 3.5 mph - N/A   Overcast
6:16 AM 10.4 °F - 1.4 °F 67% 29.67 in 10.0 mi Calm Calm - N/A   Scattered Clouds
6:36 AM 8.6 °F 2.0 °F 1.4 °F 73% 29.67 in 10.0 mi North 3.5 mph - N/A   Mostly Cloudy
6:56 AM 8.6 °F 0.1 °F 3.2 °F 79% 29.67 in 10.0 mi NNW 4.6 mph - N/A   Overcast
7:16 AM 10.4 °F 2.2 °F 3.2 °F 73% 29.66 in 10.0 mi North 4.6 mph - N/A   Overcast
7:36 AM 10.4 °F - 3.2 °F 73% 29.66 in 10.0 mi Calm Calm - N/A   Overcast
7:56 AM 12.2 °F 6.1 °F 6.8 °F 79% 29.66 in 10.0 mi NNW 3.5 mph - N/A   Overcast
8:16 AM 14.0 °F - 10.4 °F 86% 29.65 in 10.0 mi Calm Calm - N/A   Overcast
8:36 AM 15.8 °F 8.6 °F 8.6 °F 73% 29.64 in 10.0 mi North 4.6 mph - N/A   Overcast
8:56 AM 15.8 °F 10.2 °F 8.6 °F 73% 29.64 in 10.0 mi NNW 3.5 mph - N/A   Overcast
9:16 AM 15.8 °F 7.2 °F 8.6 °F 73% 29.63 in 10.0 mi NNW 5.8 mph - N/A   Overcast
9:36 AM 15.8 °F 7.2 °F 8.6 °F 73% 29.63 in 10.0 mi NNW 5.8 mph - N/A   Overcast
9:56 AM 15.8 °F 8.6 °F 10.4 °F 79% 29.63 in 10.0 mi North 4.6 mph - N/A   Overcast
10:16 AM 17.6 °F 9.3 °F 10.4 °F 73% 29.63 in 10.0 mi NNW 5.8 mph - N/A   Overcast
10:36 AM 17.6 °F 10.7 °F 10.4 °F 73% 29.62 in 10.0 mi North 4.6 mph - N/A   Overcast
10:56 AM 17.6 °F 9.3 °F 10.4 °F 73% 29.61 in 10.0 mi North 5.8 mph - N/A   Overcast
11:16 AM 17.6 °F 12.3 °F 12.2 °F 79% 29.61 in 10.0 mi North 3.5 mph - N/A   Overcast
11:36 AM 17.6 °F - 12.2 °F 79% 29.60 in 10.0 mi Calm Calm - N/A   Overcast
12:16 PM 19.4 °F 10.4 °F 12.2 °F 74% 29.58 in 10.0 mi NNW 6.9 mph - N/A   Overcast
12:36 PM 19.4 °F 11.5 °F 12.2 °F 74% 29.57 in 10.0 mi NNW 5.8 mph - N/A   Overcast
12:56 PM 19.4 °F 10.4 °F 12.2 °F 74% 29.56 in 10.0 mi NNW 6.9 mph - N/A   Overcast
1:16 PM 17.6 °F 9.3 °F 10.4 °F 73% 29.56 in 10.0 mi NNW 5.8 mph - N/A   Mostly Cloudy
1:36 PM 17.6 °F 8.2 °F 10.4 °F 73% 29.55 in 10.0 mi NNW 6.9 mph - N/A   Scattered Clouds
1:56 PM 19.4 °F 11.5 °F 10.4 °F 68% 29.55 in 10.0 mi NNW 5.8 mph - N/A   Mostly Cloudy
2:16 PM 19.4 °F 10.4 °F 10.4 °F 68% 29.54 in 10.0 mi North 6.9 mph - N/A   Mostly Cloudy
2:36 PM 17.6 °F 9.3 °F 8.6 °F 68% 29.53 in 10.0 mi NNW 5.8 mph - N/A   Clear
2:56 PM 19.4 °F 11.5 °F 10.4 °F 68% 29.53 in 10.0 mi North 5.8 mph - N/A   Clear
3:16 PM 17.6 °F 9.3 °F 8.6 °F 68% 29.52 in 10.0 mi NNW 5.8 mph - N/A   Mostly Cloudy
3:36 PM 17.6 °F 8.2 °F 10.4 °F 73% 29.50 in 10.0 mi NNW 6.9 mph - N/A   Overcast
3:56 PM 19.4 °F 10.4 °F 10.4 °F 68% 29.49 in 10.0 mi North 6.9 mph - N/A   Overcast
4:16 PM 19.4 °F 12.8 °F 12.2 °F 74% 29.48 in 10.0 mi NW 4.6 mph - N/A   Overcast
4:36 PM 19.4 °F - 10.4 °F 68% 29.48 in 10.0 mi Calm Calm - N/A   Mostly Cloudy
4:56 PM 19.4 °F 11.5 °F 10.4 °F 68% 29.47 in 10.0 mi NNW 5.8 mph - N/A   Partly Cloudy
5:16 PM 19.4 °F - 10.4 °F 68% 29.47 in 10.0 mi Calm Calm - N/A   Clear
5:36 PM 17.6 °F - 10.4 °F 73% 29.46 in 10.0 mi Calm Calm - N/A   Clear
5:56 PM 17.6 °F 12.3 °F 10.4 °F 73% 29.46 in 10.0 mi NW 3.5 mph - N/A   Partly Cloudy
6:16 PM 15.8 °F - 10.4 °F 79% 29.46 in 10.0 mi Calm Calm - N/A   Mostly Cloudy
6:36 PM 17.6 °F 10.7 °F 10.4 °F 73% 29.44 in 10.0 mi NNW 4.6 mph - N/A   Overcast
6:56 PM 19.4 °F 12.8 °F 10.4 °F 68% 29.42 in 10.0 mi NW 4.6 mph - N/A   Overcast
7:16 PM 19.4 °F 14.3 °F 12.2 °F 74% 29.42 in 10.0 mi NNW 3.5 mph - N/A   Overcast
7:36 PM 19.4 °F 14.3 °F 12.2 °F 74% 29.41 in 10.0 mi North 3.5 mph - N/A   Overcast
7:56 PM 17.6 °F - 10.4 °F 73% 29.41 in 10.0 mi Calm Calm - N/A   Overcast
8:16 PM 17.6 °F - 10.4 °F 73% 29.40 in 10.0 mi Calm Calm - N/A   Overcast
8:36 PM 17.6 °F - 12.2 °F 79% 29.39 in 10.0 mi Calm Calm - N/A   Overcast
8:56 PM 17.6 °F - 10.4 °F 73% 29.38 in 10.0 mi Calm Calm - N/A   Overcast
9:16 PM 17.6 °F - 12.2 °F 79% 29.37 in 10.0 mi Calm Calm - N/A   Overcast
9:36 PM 17.6 °F - 12.2 °F 79% 29.37 in 10.0 mi Calm Calm - N/A   Overcast
9:56 PM 17.6 °F - 12.2 °F 79% 29.37 in 10.0 mi Calm Calm - N/A   Overcast
10:16 PM 17.6 °F 12.3 °F 12.2 °F 79% 29.36 in 10.0 mi North 3.5 mph - N/A   Overcast
10:36 PM 17.6 °F - 12.2 °F 79% 29.36 in 10.0 mi Calm Calm - N/A   Overcast
10:56 PM 15.8 °F 10.2 °F 10.4 °F 79% 29.35 in 10.0 mi North 3.5 mph - N/A   Scattered Clouds
11:16 PM 14.0 °F 6.5 °F 8.6 °F 79% 29.34 in 10.0 mi North 4.6 mph - N/A   Scattered Clouds
11:36 PM 14.0 °F 3.9 °F 8.6 °F 79% 29.32 in 10.0 mi NNW 6.9 mph - N/A   Mostly Cloudy
11:56 PM 17.6 °F - 12.2 °F 79% 29.31 in 10.0 mi Calm Calm - N/A   Mostly Cloudy